Weather History for KUUU - April, 2013

Change the Weather History Date:

Friday, April 19, 2013

  Actual Average Record
Temperature  
Mean Temperature 56 °F -  
Max Temperature 63 °F 58 °F 86 °F (1976)
Min Temperature 50 °F 39 °F 25 °F (1983)
Degree Days  
Heating Degree Days 9    
Growing Degree Days 6 (Base 50)    
Moisture  
Dew Point 54 °F    
Average Humidity 96    
Maximum Humidity 100    
Minimum Humidity 82    
Precipitation  
Precipitation 0.06 in - - ()
Sea Level Pressure  
Sea Level Pressure 29.95 in    
Wind  
Wind Speed 14 mph (South)    
Max Wind Speed 22 mph    
Max Gust Speed 34 mph    
Visibility 3 miles    
Events Fog , Rain    
Averages and records for this station are not official NWS values.
T = Trace of Precipitation, MM = Missing Value Source: NWS Daily Summary

Daily Weather History Graph

Daily Weather History Graph

Search for Another Location

Airport or City:

Trip Planner

Search our weather history database for the weather conditions in past years. The results will help you decide how hot, cold, wet, or windy it might be!

Date:

Astronomy

Apr. 19, 2013 Rise Set
Actual Time 5:58 AM EDT 7:30 PM EDT
Civil Twilight 5:29 AM EDT 7:59 PM EDT
Nautical Twilight 4:54 AM EDT 8:34 PM EDT
Astronomical Twilight 4:17 AM EDT 9:12 PM EDT
Moon 1:07 PM EDT (4/19) 2:17 AM EDT (4/19)
Length of Visible Light 14h 29m
Length of Day
13h 31m
First Quarter, 61% of the Moon is Illuminated
Apr 19
First Quarter
Apr 25
Full
May 2
Last Quarter
May 9
New
May 18
First Quarter

Hourly Weather History & Observations

Time (EDT) Temp. Dew Point Humidity Pressure Visibility Wind Dir Wind Speed Gust Speed Precip Events Conditions
12:53 AM 50.0 °F 46.9 °F 89% 30.14 in 9.0 mi SSE 13.8 mph 21.9 mph N/A   Overcast
1:16 AM 50.0 °F 48.2 °F 94% 30.13 in 8.0 mi SSE 13.8 mph - N/A   Overcast
1:53 AM 51.1 °F 48.9 °F 92% 30.11 in 5.0 mi South 12.7 mph - N/A   Overcast
2:12 AM 51.8 °F 50.0 °F 94% 30.10 in 1.8 mi South 15.0 mph 21.9 mph 0.00 in   Overcast
2:25 AM 50.0 °F 48.2 °F 94% 30.10 in 0.5 mi South 15.0 mph 21.9 mph 0.00 in Fog Fog
2:53 AM 50.0 °F 50.0 °F 100% 30.09 in 0.5 mi South 13.8 mph 19.6 mph 0.00 in Fog , Rain Light Rain
3:53 AM 51.1 °F 51.1 °F 100% 30.06 in 0.5 mi South 11.5 mph - 0.00 in Fog Fog
4:53 AM 52.0 °F 52.0 °F 100% 30.05 in 1.0 mi South 8.1 mph - N/A   Mist
5:13 AM 51.8 °F 51.8 °F 100% 30.04 in 0.5 mi South 11.5 mph - N/A Fog Fog
5:39 AM 51.8 °F 51.8 °F 100% 30.05 in 1.2 mi South 11.5 mph - N/A   Overcast
5:48 AM 51.8 °F 51.8 °F 100% 30.05 in 3.0 mi South 11.5 mph - N/A   Overcast
5:53 AM 52.0 °F 52.0 °F 100% 30.05 in 4.0 mi South 9.2 mph - N/A   Overcast
6:07 AM 51.8 °F 51.8 °F 100% 30.04 in 1.8 mi South 11.5 mph - N/A   Overcast
6:16 AM 51.8 °F 51.8 °F 100% 30.05 in 0.2 mi South 16.1 mph - N/A Fog Fog
6:53 AM 52.0 °F 51.1 °F 97% 30.04 in 0.2 mi South 12.7 mph - N/A Fog Fog
7:53 AM 54.0 °F 54.0 °F 100% 30.04 in 1.5 mi South 9.2 mph 16.1 mph N/A   Overcast
8:05 AM 53.6 °F 53.6 °F 100% 30.04 in 0.5 mi South 11.5 mph - N/A Fog Fog
8:53 AM 55.0 °F 54.0 °F 96% 30.03 in 0.2 mi South 12.7 mph - N/A Fog Fog
9:36 AM 55.4 °F 55.4 °F 100% 30.02 in 1.8 mi South 11.5 mph 17.3 mph N/A   Overcast
9:41 AM 55.4 °F 55.4 °F 100% 30.02 in 3.0 mi SSW 11.5 mph 17.3 mph N/A   Overcast
9:53 AM 55.9 °F 54.0 °F 93% 30.02 in 4.0 mi SSW 10.4 mph 18.4 mph N/A   Overcast
10:53 AM 57.9 °F 55.0 °F 90% 30.01 in 10.0 mi South 9.2 mph 19.6 mph N/A   Overcast
11:53 AM 59.0 °F 55.9 °F 90% 29.99 in 10.0 mi South 10.4 mph - N/A   Overcast
12:24 PM 57.2 °F 55.4 °F 94% 29.97 in 1.8 mi South 12.7 mph 16.1 mph N/A   Overcast
12:34 PM 57.2 °F 55.4 °F 94% 29.97 in 0.5 mi South 12.7 mph - N/A Fog Fog
12:51 PM 57.2 °F 55.4 °F 94% 29.96 in 2.0 mi South 13.8 mph 23.0 mph N/A   Overcast
12:53 PM 57.9 °F 55.9 °F 93% 29.96 in 2.5 mi South 12.7 mph 23.0 mph N/A   Overcast
1:00 PM 57.2 °F 57.2 °F 100% 29.95 in 3.0 mi South 13.8 mph 24.2 mph N/A   Overcast
1:53 PM 62.1 °F 57.9 °F 86% 29.93 in 10.0 mi South 15.0 mph - N/A   Overcast
2:18 PM 60.8 °F 55.4 °F 82% 29.92 in 10.0 mi South 18.4 mph 26.5 mph N/A   Overcast
2:53 PM 61.0 °F 57.0 °F 87% 29.91 in 10.0 mi South 17.3 mph 27.6 mph N/A   Overcast
3:16 PM 60.8 °F 55.4 °F 82% 29.89 in 10.0 mi South 20.7 mph 27.6 mph N/A   Overcast
3:28 PM 59.0 °F 57.2 °F 94% 29.89 in 6.0 mi South 17.3 mph 29.9 mph 0.00 in Rain Light Rain
3:53 PM 59.0 °F 57.9 °F 96% 29.87 in 7.0 mi South 17.3 mph 24.2 mph 0.00 in Rain Light Rain
4:29 PM 55.4 °F 55.4 °F 100% 29.86 in 2.0 mi South 17.3 mph - 0.00 in Rain Light Rain
4:42 PM 55.4 °F 53.6 °F 94% 29.86 in 1.0 mi South 17.3 mph 25.3 mph 0.00 in Rain Light Rain
4:49 PM 53.6 °F 53.6 °F 100% 29.85 in 0.8 mi South 17.3 mph 25.3 mph 0.02 in Rain Rain
4:53 PM 54.0 °F 53.1 °F 97% 29.86 in 1.0 mi South 16.1 mph 25.3 mph 0.03 in Rain Rain
5:13 PM 53.6 °F 53.6 °F 100% 29.85 in 0.5 mi South 15.0 mph 21.9 mph 0.02 in Fog , Rain Light Rain
5:53 PM 54.0 °F 53.1 °F 97% 29.82 in 0.2 mi South 15.0 mph 26.5 mph 0.03 in Fog Fog
6:53 PM 55.0 °F 54.0 °F 96% 29.81 in 0.2 mi South 19.6 mph 27.6 mph N/A Fog Fog
7:53 PM 53.1 °F 53.1 °F 100% 29.80 in 0.2 mi South 18.4 mph 28.8 mph N/A Fog Fog
8:53 PM 57.0 °F 55.9 °F 96% 29.79 in 0.5 mi South 21.9 mph 31.1 mph 0.00 in Fog Fog
9:53 PM 57.9 °F 57.0 °F 97% 29.78 in 0.8 mi South 18.4 mph 31.1 mph N/A   Mist
10:00 PM 57.2 °F 57.2 °F 100% 29.77 in 1.2 mi South 21.9 mph 34.5 mph N/A   Overcast
10:26 PM 57.2 °F 55.4 °F 94% 29.77 in 0.8 mi South 17.3 mph 32.2 mph N/A   Mist
10:53 PM 57.0 °F 57.0 °F 100% 29.76 in 0.8 mi SSW 13.8 mph 27.6 mph N/A   Mist
11:01 PM 57.2 °F 57.2 °F 100% 29.76 in 1.0 mi SSW 12.7 mph 27.6 mph N/A   Overcast
11:19 PM 57.2 °F 57.2 °F 100% 29.75 in 0.8 mi South 17.3 mph 25.3 mph N/A   Mist
11:53 PM 57.0 °F 55.9 °F 96% 29.74 in 0.5 mi South 21.9 mph 28.8 mph 0.00 in Fog , Rain Light Rain